POLAR

Last updated on Fri Sep 11 2026 00:03:31 GMT+0000 (Coordinated Universal Time)

1 23802U 96013A 26252.76393034 .00000120 00000+0 00000+0 0 9997 2 23802 79.9999 226.0388 6549506 206.1511 95.9423 1.29845845145951
UTC large
Height (km)
Speed (km/s)
/
Latitude / Longitude
Inclination (degrees)
Orbital Period (minutes)
Azimuth
Elevation
Range (km)
Doppler Factor

Next 0 passes for location: London (51.5072 / 0.1276)

No passes found over London.
POLAR